Location: Temiskaming Shores
(47.4794°N, 79.7121°W)
Time: 13:54:00
(UTC-05:00)

ISS - Visible Passes

Search period start: 16 January 2026 00:00
Search period end: 26 January 2026 00:00
Orbit: 413 x 424 km, 51.6° (Epoch: 16 January)

Date Brightness Start Highest point End Pass type
(mag) Time Alt. Az. Time Alt. Az. Time Alt. Az.
16 Jan -3.7 18:02:08 10° SW 18:05:27 71° SSE 18:07:39 20° ENE visible
16 Jan -1.3 19:39:12 10° W 19:40:36 22° WNW 19:40:36 22° WNW visible
17 Jan -3.3 18:51:18 10° W 18:54:33 49° NNW 18:54:49 47° N visible
18 Jan -3.5 18:03:23 10° W 18:06:42 61° NNW 18:08:59 18° ENE visible
18 Jan -1.2 19:40:40 10° WNW 19:41:56 20° WNW 19:41:56 20° WNW visible
19 Jan -3.0 18:52:45 10° WNW 18:55:56 39° N 18:56:05 39° N visible
20 Jan -3.0 18:04:48 10° W 18:08:00 42° N 18:10:13 18° ENE visible
20 Jan -1.2 19:41:57 10° WNW 19:43:09 20° NW 19:43:09 20° NW visible
21 Jan -3.1 18:54:04 10° WNW 18:57:15 40° N 18:57:17 40° N visible
22 Jan -3.0 18:06:07 10° WNW 18:09:17 38° N 18:11:26 18° ENE visible
22 Jan -1.4 19:43:02 10° WNW 19:44:23 22° WNW 19:44:23 22° WNW visible
23 Jan -3.6 18:55:10 10° WNW 18:58:27 55° NNE 18:58:33 54° NNE visible
24 Jan -3.3 18:07:16 10° WNW 18:10:30 45° NNE 18:12:47 17° E visible
24 Jan -1.6 19:44:04 10° WNW 19:45:44 26° W 19:45:44 26° W visible
25 Jan -3.8 18:56:08 10° WNW 18:59:28 84° SSW 19:00:02 59° SE visible
